Flag for Canada Weather past 2 weeks in Quesnel, British Columbia, Canada

Now
59 °F

Broken clouds.


Feels Like: 59 °F
Forecast: 51 / 68 °F
Wind: 5 mph from Northwest

Location: Quesnel Airport

Current Time: May 23, 2015 at 8:33:52 PM

Latest Report: May 23, 2015 at 8:01 PM


Visibility: 9 mi

Pressure: 30.12 "Hg

Humidity: 77%

Dew point: 52 °F

Location of QuesnelLocation

Historic Weather in Quesnel — Graph

°F

Quesnel temperature yesterday

Maximum temperature yesterday: 77 °F (at 5:00 PM)
Minimum temperature yesterday: 45 °F (at 5:00 AM)
Average temperature yesterday: 60 °F

Past Weeks' High & Low Weather Summary

 TemperatureHumidityPressure
High81 °F (May 21, 4:00 PM)100% (May 15, 5:00 AM)30.21 "Hg (May 15, 5:00 AM)
Low36 °F (May 9, 5:00 AM)14% (May 12, 6:00 PM)29.64 "Hg (May 12, 8:00 PM)
Average58 °F59%29.97 "Hg
* Reported May 8 7:00 PM — May 23 7:00 PM, Quesnel, Weather by CustomWeather, © 2015

Note: Actual official high and low records may vary slightly from our data, if they occured in-between our weather recording intervals... More about our weather records

Advertising

Quesnel weather history for previous 24 hours

 ConditionsComfort  
Time TempWeatherWind HumidityBarometerVisibility
7:00 PM
Sat, May 23
61 °FPartly sunny.7 mph68%30.13 "Hg9 mi
6:00 PM61 °FScattered clouds.13 mph72%30.12 "Hg9 mi
5:00 PM63 °FBroken clouds.8 mph59%30.09 "Hg9 mi
4:00 PM73 °FPassing clouds.10 mph41%30.04 "Hg9 mi
3:00 PM73 °FPassing clouds.6 mph41%30.04 "Hg9 mi
2:00 PM73 °FPassing clouds.3 mph44%30.05 "Hg9 mi
1:00 PM72 °FSunny.No wind50%30.08 "Hg9 mi
12:00 PM70 °FSunny.5 mph50%30.08 "Hg9 mi
11:00 AM68 °FSunny.10 mph53%30.09 "Hg9 mi
10:00 AM61 °FSunny.2 mph72%30.11 "Hg9 mi
9:00 AM59 °FPartly sunny.2 mph72%30.11 "Hg9 mi
8:00 AM55 °FScattered clouds.2 mph82%30.11 "Hg9 mi
7:00 AM52 °FPartly sunny.No wind88%30.10 "Hg9 mi
6:00 AM46 °FPassing clouds.2 mph93%30.09 "Hg9 mi
5:00 AM46 °FPassing clouds.No wind93%30.07 "Hg9 mi
4:00 AM48 °FPassing clouds.3 mph94%30.07 "Hg9 mi
3:00 AM50 °FPassing clouds.No wind88%30.05 "Hg9 mi
2:00 AM52 °FClear.3 mph88%30.04 "Hg9 mi
1:00 AM54 °FPassing clouds.No wind82%30.03 "Hg9 mi
12:00 AM57 °FOvercast.No wind77%30.01 "Hg9 mi
11:00 PM
Fri, May 22
59 °FPartly cloudy.3 mph68%30.00 "Hg9 mi
10:00 PM61 °FMostly cloudy.7 mph63%29.99 "Hg9 mi
9:00 PM63 °FScattered clouds.5 mph64%29.96 "Hg9 mi
8:00 PM66 °FPassing clouds.8 mph60%29.93 "Hg9 mi
Weather by CustomWeather, © 2015

See weather overviewHow to use our weather pages